• en France
  • Liste des pays
  • À 7 jours
  • Température de l'eau
  • Carte satellitaire
  • Carte météo
  • Widgets météo
  • user-avatar
    Se connecter

    Météo par heure à Loubomo

    Ce jour, 20 Août, Lundi

    Heure Température Précipitation Vent Pression Humidité
    00:00 +22°C° 0 mm 1 m/s 702 mmHg 98%
    01:00 +21°C° 0 mm 1 m/s 702 mmHg 98%
    02:00 +21°C° 0,3 mm 1 m/s 702 mmHg 98%
    03:00 +21°C° 0,3 mm 1 m/s 702 mmHg 98%
    04:00 +21°C° 0,3 mm 1 m/s 702 mmHg 99%
    05:00 +21°C° 0,1 mm 1 m/s 702 mmHg 98%
    06:00 +21°C° 0,1 mm 1 m/s 702 mmHg 98%
    07:00 +21°C° 0,1 mm 1 m/s 702 mmHg 98%
    08:00 +22°C° 0 mm 1 m/s 703 mmHg 94%
    09:00 +23°C° 0 mm 1 m/s 703 mmHg 90%
    10:00 +24°C° 0 mm 1 m/s 703 mmHg 86%
    11:00 +25°C° 0,1 mm 1 m/s 703 mmHg 81%
    12:00 +26°C° 0,1 mm 1 m/s 702 mmHg 75%
    13:00 +27°C° 0,1 mm 1 m/s 702 mmHg 69%
    14:00 +27°C° 0,6 mm 1 m/s 701 mmHg 72%
    15:00 +27°C° 0,6 mm 1 m/s 700 mmHg 76%
    16:00 +27°C° 0,6 mm 1 m/s 699 mmHg 79%
    17:00 +25°C° 0,8 mm 1 m/s 700 mmHg 85%
    18:00 +24°C° 0,8 mm 1 m/s 700 mmHg 91%
    19:00 +22°C° 0,8 mm 1 m/s 700 mmHg 98%
    20:00 +22°C° 0,1 mm 1 m/s 701 mmHg 98%
    21:00 +22°C° 0,1 mm 1 m/s 702 mmHg 98%
    22:00 +22°C° 0,1 mm 1 m/s 702 mmHg 98%
    23:00 +21°C° 0 mm 1 m/s 702 mmHg 99%

    Demain, 21 Août, Mardi

    Heure Température Précipitation Vent Pression Humidité
    00:00 +21°C° 0 mm 1 m/s 702 mmHg 99%
    01:00 +21°C° 0 mm 1 m/s 702 mmHg 99%
    02:00 +21°C° 0,1 mm 1 m/s 702 mmHg 99%
    03:00 +21°C° 0,1 mm 1 m/s 702 mmHg 98%
    04:00 +21°C° 0,1 mm 1 m/s 701 mmHg 98%
    05:00 +21°C° 0 mm 1 m/s 702 mmHg 98%
    06:00 +21°C° 0 mm 1 m/s 702 mmHg 98%
    07:00 +21°C° 0 mm 1 m/s 702 mmHg 98%
    08:00 +22°C° 0 mm 1 m/s 703 mmHg 93%
    09:00 +23°C° 0 mm 1 m/s 703 mmHg 88%
    10:00 +24°C° 0 mm 2 m/s 704 mmHg 83%
    11:00 +25°C° 0,3 mm 2 m/s 703 mmHg 81%
    12:00 +26°C° 0,3 mm 1 m/s 703 mmHg 80%
    13:00 +26°C° 0,3 mm 1 m/s 702 mmHg 78%
    14:00 +26°C° 0,9 mm 1 m/s 701 mmHg 83%
    15:00 +26°C° 0,9 mm 1 m/s 701 mmHg 87%
    16:00 +25°C° 0,9 mm 1 m/s 700 mmHg 91%
    17:00 +24°C° 1,1 mm 1 m/s 700 mmHg 93%
    18:00 +23°C° 1,1 mm 1 m/s 700 mmHg 95%
    19:00 +22°C° 1,1 mm 1 m/s 701 mmHg 97%
    20:00 +22°C° 0,9 mm 1 m/s 701 mmHg 97%
    21:00 +22°C° 0,9 mm 1 m/s 702 mmHg 98%
    22:00 +22°C° 0,9 mm 1 m/s 703 mmHg 98%
    23:00 +22°C° 0,3 mm 1 m/s 702 mmHg 98%

    Après-demain, 22 Août, Mercredi

    Heure Température Précipitation Vent Pression Humidité
    00:00 +21°C° 0,3 mm 1 m/s 702 mmHg 98%
    01:00 +21°C° 0,3 mm 1 m/s 702 mmHg 99%
    02:00 +21°C° 0,2 mm 1 m/s 702 mmHg 99%
    03:00 +21°C° 0,2 mm 1 m/s 701 mmHg 99%
    04:00 +21°C° 0,2 mm 1 m/s 701 mmHg 99%
    05:00 +21°C° 0,1 mm 1 m/s 701 mmHg 99%
    06:00 +21°C° 0,1 mm 1 m/s 701 mmHg 98%
    07:00 +21°C° 0,1 mm 1 m/s 702 mmHg 98%
    08:00 +22°C° 0,3 mm 1 m/s 702 mmHg 96%
    09:00 +22°C° 0,3 mm 1 m/s 703 mmHg 94%
    10:00 +23°C° 0,3 mm 1 m/s 703 mmHg 92%
    11:00 +24°C° 0,2 mm 1 m/s 703 mmHg 87%
    12:00 +25°C° 0,2 mm 2 m/s 702 mmHg 82%
    13:00 +27°C° 0,2 mm 2 m/s 702 mmHg 76%
    14:00 +26°C° 0,6 mm 2 m/s 701 mmHg 82%
    15:00 +25°C° 0,6 mm 2 m/s 701 mmHg 87%
    16:00 +24°C° 0,6 mm 2 m/s 700 mmHg 92%
    17:00 +24°C° 0,3 mm 2 m/s 701 mmHg 94%
    18:00 +23°C° 0,3 mm 1 m/s 701 mmHg 95%
    19:00 +22°C° 0,3 mm 1 m/s 701 mmHg 97%
    20:00 +22°C° 0 mm 1 m/s 702 mmHg 98%
    21:00 +21°C° 0 mm 1 m/s 703 mmHg 98%
    22:00 +21°C° 0 mm 1 m/s 703 mmHg 99%
    23:00 +21°C° 0 mm 1 m/s 703 mmHg 99%

    23 Août, Jeudi

    Heure Température Précipitation Vent Pression Humidité
    00:00 +21°C° 0 mm 1 m/s 702 mmHg 99%
    01:00 +21°C° 0 mm 1 m/s 702 mmHg 99%
    02:00 +21°C° 0,1 mm 1 m/s 702 mmHg 99%
    03:00 +21°C° 0,1 mm 1 m/s 701 mmHg 99%
    04:00 +21°C° 0,1 mm 1 m/s 701 mmHg 99%
    05:00 +21°C° 0 mm 1 m/s 701 mmHg 98%
    06:00 +21°C° 0 mm 1 m/s 702 mmHg 98%
    07:00 +21°C° 0 mm 1 m/s 702 mmHg 98%
    08:00 +22°C° 0 mm 1 m/s 703 mmHg 89%
    09:00 +24°C° 0 mm 1 m/s 703 mmHg 80%
    10:00 +26°C° 0 mm 1 m/s 704 mmHg 72%
    11:00 +27°C° 0,2 mm 2 m/s 703 mmHg 69%
    12:00 +28°C° 0,2 mm 2 m/s 702 mmHg 66%
    13:00 +29°C° 0,2 mm 2 m/s 702 mmHg 63%
    14:00 +28°C° 0,8 mm 2 m/s 701 mmHg 70%
    15:00 +27°C° 0,8 mm 1 m/s 700 mmHg 77%
    16:00 +26°C° 0,8 mm 1 m/s 700 mmHg 84%
    17:00 +25°C° 0,5 mm 1 m/s 700 mmHg 89%
    18:00 +24°C° 0,5 mm 1 m/s 701 mmHg 93%
    19:00 +22°C° 0,5 mm 1 m/s 701 mmHg 97%
    20:00 +22°C° 0,3 mm 1 m/s 702 mmHg 98%
    21:00 +22°C° 0,3 mm 1 m/s 702 mmHg 98%
    22:00 +22°C° 0,3 mm 1 m/s 702 mmHg 98%
    23:00 +21°C° 0 mm 1 m/s 702 mmHg 98%

    24 Août, Vendredi

    Heure Température Précipitation Vent Pression Humidité
    00:00 +19°C° 0 mm 0 m/s 702 mmHg 99%
    01:00 +19°C° 0 mm 0 m/s 702 mmHg 99%
    02:00 +19°C° 0 mm 0 m/s 701 mmHg 99%
    03:00 +19°C° 0 mm 0 m/s 701 mmHg 99%
    04:00 +19°C° 0 mm 0 m/s 701 mmHg 99%
    05:00 +19°C° 0 mm 0 m/s 701 mmHg 99%
    06:00 +19°C° 0 mm 0 m/s 702 mmHg 98%
    07:00 +19°C° 0 mm 0 m/s 702 mmHg 98%
    08:00 +20°C° 0 mm 0 m/s 702 mmHg 92%
    09:00 +22°C° 0 mm 0 m/s 703 mmHg 86%
    10:00 +23°C° 0 mm 0 m/s 703 mmHg 81%
    11:00 +24°C° 0,1 mm 0 m/s 703 mmHg 76%
    12:00 +25°C° 0,1 mm 0 m/s 702 mmHg 71%
    13:00 +26°C° 0,1 mm 0 m/s 702 mmHg 66%
    14:00 +26°C° 0,2 mm 0 m/s 701 mmHg 69%
    15:00 +25°C° 0,2 mm 0 m/s 700 mmHg 73%
    16:00 +27°C° 0,2 mm 1 m/s 700 mmHg 76%
    17:00 +25°C° 0,2 mm 1 m/s 700 mmHg 82%
    18:00 +24°C° 0,2 mm 1 m/s 700 mmHg 89%
    19:00 +20°C° 0,2 mm 0 m/s 701 mmHg 95%
    20:00 +20°C° 0,3 mm 0 m/s 701 mmHg 95%
    21:00 +20°C° 0,3 mm 0 m/s 702 mmHg 96%
    22:00 +19°C° 0,3 mm 0 m/s 702 mmHg 96%
    23:00 +19°C° 0,3 mm 0 m/s 702 mmHg 96%

    25 Août, Samedi

    Heure Température Précipitation Vent Pression Humidité
    00:00 +19°C° 0,3 mm 0 m/s 701 mmHg 96%
    01:00 +19°C° 0,3 mm 0 m/s 701 mmHg 96%
    02:00 +19°C° 0,5 mm 0 m/s 701 mmHg 97%
    03:00 +19°C° 0,5 mm 0 m/s 701 mmHg 97%
    04:00 +18°C° 0,5 mm 0 m/s 701 mmHg 98%
    05:00 +19°C° 0,1 mm 0 m/s 701 mmHg 98%
    06:00 +19°C° 0,1 mm 0 m/s 702 mmHg 97%
    07:00 +19°C° 0,1 mm 0 m/s 702 mmHg 97%
    08:00 +22°C° 0 mm 1 m/s 703 mmHg 93%
    09:00 +23°C° 0 mm 1 m/s 703 mmHg 88%
    10:00 +24°C° 0 mm 1 m/s 703 mmHg 84%
    11:00 +26°C° 0,2 mm 1 m/s 703 mmHg 78%
    12:00 +27°C° 0,2 mm 1 m/s 702 mmHg 72%
    13:00 +29°C° 0,2 mm 1 m/s 702 mmHg 66%
    14:00 +28°C° 1,2 mm 1 m/s 701 mmHg 73%
    15:00 +28°C° 1,2 mm 1 m/s 701 mmHg 80%
    16:00 +27°C° 1,2 mm 1 m/s 700 mmHg 87%
    17:00 +26°C° 1,2 mm 1 m/s 700 mmHg 90%
    18:00 +24°C° 1,2 mm 1 m/s 701 mmHg 93%
    19:00 +23°C° 1,2 mm 1 m/s 701 mmHg 96%
    20:00 +22°C° 0,7 mm 1 m/s 701 mmHg 96%
    21:00 +22°C° 0,7 mm 1 m/s 702 mmHg 96%
    22:00 +20°C° 0,7 mm 0 m/s 702 mmHg 97%
    23:00 +22°C° 0,5 mm 1 m/s 702 mmHg 97%
    Voir plus